+ View the NASA Portal
+ Center for Near-Earth Object Studies
IMPORTANT:
The SSD Announcement email list is now available. Major changes are coming in the near future, including possible hostname and/or URL changes. To be notified of such changes, subscribe to this email list.
Please visit
this page
for more details.
Don't show this message again
JPL Small-Body Database Browser
Search:
[
help
]
266551 (2008 GA15)
Classification:
Main-belt Asteroid
SPK-ID:
2266551
[
Ephemeris
|
Orbit Diagram
|
Orbital Elements
|
Mission Design
|
Physical Parameters
|
Discovery Circumstances
]
[ show orbit diagram ]
Orbital Elements at Epoch 2458600.5 (2019-Apr-27.0) TDB
Reference:
JPL 12
(heliocentric ecliptic J2000)
Element
Value
Uncertainty (1-sigma)
Units
e
.1942064632562964
5.5031e-08
a
2.334479176648656
1.7264e-08
au
q
1.88110823220625
1.2768e-07
au
i
.08468485328297129
8.4882e-06
deg
node
5.071395881223942
0.0039357
deg
peri
272.5065335177569
0.0039357
deg
M
335.7908131642521
2.5235e-05
deg
t
p
2458688.111503810708
(2019-Jul-23.61150381)
9.1832e-05
TDB
period
1302.817049818534
3.57
1.4452e-05
3.957e-08
d
yr
n
.276324292846907
3.0653e-09
deg/d
Q
2.787850121091062
2.0617e-08
au
Orbit Determination Parameters
# obs. used (total)
234
data-arc span
7600 days (20.81 yr)
first obs. used
1998-09-13
last obs. used
2019-07-05
planetary ephem.
DE431
SB-pert. ephem.
SB431-N16
condition code
0
norm. resid. RMS
.69443
source
ORB
producer
Otto Matic
solution date
2019-Sep-24 04:36:38
Additional Information
Earth MOID
= .864139 au
Jupiter MOID
= 2.33809 au
T_jup
= 3.543
[ show covariance matrix ]
[
Ephemeris
|
Orbit Diagram
|
Orbital Elements
|
Mission Design
|
Physical Parameters
|
Discovery Circumstances
]
Physical Parameter Table
Parameter
Symbol
Value
Units
Sigma
Reference
Notes
absolute magnitude
H
17.4
n/a
MPO433730
266551 (2008 GA15)
Discovered 2008-Apr-03 by Mt. Lemmon Survey at Mount Lemmon
Reference:
20110218/Numbers.arc
Last Updated:
2011-02-22
Alternate Designations
2008 GA15
= 2001 HH24
[
Ephemeris
|
Orbit Diagram
|
Orbital Elements
|
Mission Design
|
Physical Parameters
|
Discovery Circumstances
]
2019-Dec-15 08:19 UT
(server date/time)
Site Manager:
Ryan S. Park
Webmaster
:
Alan B. Chamberlin